Regional Weather Roundup
Issued by NWS

Home | Current Version | Previous Version | Graphics & Text | Print | Product List | Glossary On
Versions: 1 2 3 4 5 6 7 8 9 10 11 12 13 14 15 16 17 18 19 20 21 22 23 24 25 26 27 28 29 30 31 32 33 34 35 36 37 38 39 40 41 42 43 44 45 46 47 48 49 50
000
ASUS43 KLOT 192310
RWRIL

ILLINOIS REGIONAL WEATHER ROUNDUP
NATIONAL WEATHER SERVICE CHICAGO/ROMEOVILLE IL
600 PM CDT SUN OCT 19 2014

NOTE: "FAIR" INDICATES FEW OR NO CLOUDS BELOW 12,000 FEET WITH NO
SIGNIFICANT WEATHER AND/OR OBSTRUCTIONS TO VISIBILITY.

* THESE STATIONS ARE NOT UNDER NWS QUALITY CONTROL. THEY ALSO MAY NOT
  REPORT WEATHER SUCH AS PRECIPITATION OR FOG.

ILZ001-002-007-009-015-016-024-200000-
NORTHWEST ILLINOIS

CITY           SKY/WX    TMP DP  RH WIND       PRES   REMARKS
MOLINE         CLOUDY    59  42  53 SW9       29.96F
STERLING*      CLOUDY    57  43  58 CALM      29.97F
SAVANNA*       PTCLDY    58  42  56 S10       29.94F
$$

ILZ003-004-008-010-011-017-018-200000-
NORTH CENTRAL ILLINOIS

CITY           SKY/WX    TMP DP  RH WIND       PRES   REMARKS
ROCKFORD       MOCLDY    56  41  57 S10       29.97F
FREEPORT*      PTCLDY    55  41  58 SW12      29.96F
ROCHELLE*      MOCLDY    55  43  65 CALM      29.98S
DE KALB*       CLOUDY    52  41  65 S9        29.98F
PERU*          CLOUDY    57  42  55 S10       30.00F
$$

ILZ005-006-012>014-019>023-200000-
NORTHEAST ILLINOIS

CITY           SKY/WX    TMP DP  RH WIND       PRES   REMARKS
CHICAGO-OHARE  CLOUDY    52  41  66 S12       29.98F
CHICAGO-MIDWAY MOCLDY    54  42  64 S10       30.00F
AURORA         CLOUDY    55  42  61 S8        29.99F
LANSING*       CLOUDY    52  42  67 SW10G17   30.02F
JOLIET*        MOCLDY    53  42  68 S8        30.00F
WAUKEGAN       MOCLDY    51  40  65 S13       29.96F
DUPAGE AIRPORT CLOUDY    53  42  66 S8        29.98F
KANKAKEE*      MOCLDY    52  43  70 S9        30.04F
WHEELING       CLOUDY    53  41  63 S10       29.99F
MORRIS*        MOCLDY    55  45  68 S6        29.99F
ROMEOVILLE*    MOCLDY    53  42  65 S8        30.00F
NORTHERLY ISL    N/A     53  40  61 S12         N/A
$$

LMZ740>746-200000-
SOUTHERN LAKE MICHIGAN

STATION/POSITION SKY/WX   TEMP    WIND        PRES    VSBY  WAVE
                          AIR SEA DIR/SP/G                  HT/PER
                          (F)     (DEG/KT/KT) (MB)    (MI)  (FT/S)
SOUTHERN BUOY              54 55  200/ 21/ 25 1014.5F         4/ 5
WAUKEGAN HARBOR            53     200/ 15/ 18   N/A
HARRISON CRIB              53     200/ 20/ 25   N/A
BURNHAM HARBOR             53     190/  9/ 15   N/A
CALUMET HARBOR             53     190/ 10/ 14 1015.0F
MICHIGAN CITY              54     180/  7/  8   N/A
$$

ILZ025>027-034>036-040-047-049-050-058-095>099-200000-
WEST-CENTRAL ILLINOIS

CITY           SKY/WX    TMP DP  RH WIND       PRES   REMARKS
QUINCY         PTCLDY    57  45  64 S5        30.02F
GALESBURG*     MOCLDY    57  44  62 S9        29.99F
MACOMB*        PTCLDY    60  43  54 SW6       30.03F
JACKSONVILLE*  PTCLDY    57  46  66 CALM      30.05F
PITTSFIELD*    MOCLDY    58  46  62 S3        30.05F
$$

ILZ028>032-037-038-041>044-048-051>054-059>061-200000-
CENTRAL ILLINOIS

CITY           SKY/WX    TMP DP  RH WIND       PRES   REMARKS
PONTIAC        MOCLDY    57  45  62 S10       30.02F
BLOOMINGTON    PTCLDY    56  45  66 S10       30.04F
DECATUR        CLEAR     56  44  64 S10       30.06F
PEORIA         MOCLDY    59  42  53 SW10      30.01F
LACON*         CLOUDY    56  42  59 S3        30.00F
LINCOLN*       CLEAR     58  43  56 S5        30.03S
SPRINGFIELD    CLEAR     57  44  62 SW7       30.05F
TAYLORVILLE    PTCLDY    52  43  71 S6        30.06F
$$

ILZ033-039-045-046-055>057-062-063-200000-
EAST-CENTRAL ILLINOIS

CITY           SKY/WX    TMP DP  RH WIND       PRES   REMARKS
CHAMPAIGN      CLEAR     53  43  68 S7        30.07F
DANVILLE*      CLEAR     51  42  73 SW9       30.05F
RANTOUL*       CLEAR     54  42  64 S8        30.07F
MATTOON        PTCLDY    52  43  71 S6        30.08F
PARIS*         PTCLDY    50  43  77 S5        30.10F
$$

ILZ079-100>102-200000-
SOUTHWEST ILLINOIS

CITY           SKY/WX    TMP DP  RH WIND       PRES   REMARKS
ALTON          MOCLDY    59  45  58 S7        30.07F
BELLEVILLE     PTCLDY    59  47  64 S2        30.07F
CAHOKIA*       PTCLDY    63  46  54 S3        30.06F
SPARTA*        PTCLDY    60  45  58 CALM      30.09F
$$

ILZ064>066-069>071-074>076-080>082-084>086-088>090-092>094-200000-
SOUTH-CENTRAL ILLINOIS

CITY           SKY/WX    TMP DP  RH WIND       PRES   REMARKS
CARBONDALE     PTCLDY    57  43  59 SW5       30.11S
CAIRO*         PTCLDY    59  47  63 CALM      30.11F
EFFINGHAM*     MOCLDY    56  42  60 CALM      30.09F
MARION         MOCLDY    59  46  63 CALM      30.11F
MT. VERNON     MOCLDY    54  45  71 CALM      30.11S
CENTRALIA*     PTCLDY    56  44  63 S3        30.09F
SALEM*         PTCLDY    59  48  66 S5        30.10S
METROPOLIS*    CLEAR     59  47  63 CALM      30.11S
$$

ILZ067-068-072-073-078-083-087-091-200000-
SOUTHEAST ILLINOIS

CITY           SKY/WX    TMP DP  RH WIND       PRES   REMARKS
LAWRENCEVILLE  PTCLDY    50  43  77 S5        30.12F
FLORA*         PTCLDY    55  44  67 SE7       30.10F
FAIRFIELD*     PTCLDY    56  43  61 SE3       30.10F
HARRISBURG*    PTCLDY    59  45  58 CALM      30.12S
ROBINSON*      PTCLDY    52  44  75 CALM      30.13F
CARMI*         PTCLDY    58  47  66 CALM      30.11S
$$

ABBREVIATIONS USED IN REMARKS
   TC - TEMPERATURE IN CELSIUS
  WCI - WIND CHILL INDEX
   HX - HEAT INDEX
  VSB - VISIBILITY
$$




USA.gov is the U.S. government's official web portal to all federal, state and local government web resources and services.